Address 0xa599a508829b18850d1a2b687eb0d4d94aafd949 2

 
Txn Hash
Block
From
To
Value [Txn Fee]
0x66d4c44cb6459510bfa0273ada80b0bde0768d839439363c2f511d6c1046085b22900602021-10-17 3:34:362 days 5 hrs ago0xa599a508829b18850d1a2b687eb0d4d94aafd949OUT 0xa55eee92a46a50a4c65908f28a0be966d3e716330 ETH0.000766975452 ETH
0xeee0a6b11ea20398b2711ca4ec058f8f917933ba3244bc98156fc4a23e6d854422799482021-10-16 17:11:122 days 16 hrs ago0xa599a508829b18850d1a2b687eb0d4d94aafd949OUT 0xa55eee92a46a50a4c65908f28a0be966d3e716330.05 ETH0.001065807377 ETH
0x54908b08324de3d68ef190b8101b1f2a1bf305c5bd8d1431d20acdaa1fd9f07f22670142021-10-16 6:25:083 days 2 hrs ago0xa599a508829b18850d1a2b687eb0d4d94aafd949OUT 0xba12222222228d8ba445958a75a0704d566bf2c80 ETH0.001519118144 ETH
0xc555a6830a5176eecc052c2bb8976b5e217e8e8d96048e647979792d97e98d2522653772021-10-16 5:00:423 days 4 hrs ago0xa599a508829b18850d1a2b687eb0d4d94aafd949OUT 0xaea8e2e7c97c5b7cd545d3b152f669bae29c4a630 ETH0.00100942622 ETH
0x824d885c6f96375abb7f703e494d6ca339d336375386e4284a9d3c7283abc4dd22653692021-10-16 4:59:453 days 4 hrs ago0xa599a508829b18850d1a2b687eb0d4d94aafd949OUT 0xf45e2ae152384d50d4e9b08b8a1f65f0d96786c30 ETH0.001155534009 ETH
0x709ca9cc548f4a81d57ca3b4ae94ab49b380fb0c76f4c6592d0827f90201c99222651812021-10-16 4:50:563 days 4 hrs ago0xa599a508829b18850d1a2b687eb0d4d94aafd949OUT 0x5475aed9d11beaa822e122c36acdfa0da2eb086f0 ETH0.00125703574 ETH
0x528cd80cbcbf06a40a8a27dab85c685c9b22273a7e1cc38e59fa6d72020c394822651552021-10-16 4:49:443 days 4 hrs ago0xa599a508829b18850d1a2b687eb0d4d94aafd949OUT 0x5475aed9d11beaa822e122c36acdfa0da2eb086f0 ETH0.001749531157 ETH
0xee6b9dec4e5541dbdc1d7fe7120d8a06f8223c50af0648e80dcbcaffc7f1b1b522650052021-10-16 4:41:353 days 4 hrs ago0xa599a508829b18850d1a2b687eb0d4d94aafd949OUT 0x5475aed9d11beaa822e122c36acdfa0da2eb086f0 ETH0.001027387319 ETH
0xcb4dc649254c545ab9d6e847a171b814059b1e980fc69ccfcfc35c6b3fd37ea622467012021-10-15 12:34:483 days 20 hrs ago0xa599a508829b18850d1a2b687eb0d4d94aafd949OUT 0xa55eee92a46a50a4c65908f28a0be966d3e716330.05 ETH0.001165665169 ETH
0x9771476ba14e73e9ff3f6a4e1abe635e925b09e234d78c207d584f06c267b60c22272842021-10-14 21:48:384 days 11 hrs ago0xa599a508829b18850d1a2b687eb0d4d94aafd949OUT 0x5475aed9d11beaa822e122c36acdfa0da2eb086f0 ETH0.000794351843 ETH
0xf2938cc18f95f584313e1c24c497de03c84f78b8b95e51382b1958cadf77b6ab22083932021-10-14 8:17:335 days 1 hr ago0xa599a508829b18850d1a2b687eb0d4d94aafd949OUT 0x5475aed9d11beaa822e122c36acdfa0da2eb086f0 ETH0.001446182147 ETH
0x6496c58563237770220bbaa11a08edbe5d6917216a3679f6bf4e38c449114ce121979062021-10-13 22:33:385 days 10 hrs ago0xa599a508829b18850d1a2b687eb0d4d94aafd949OUT 0x530476d5583724a89c8841eb6da76e7af4c0f17e0 ETH0.001280701328 ETH
0x71d2ae9869d5c6eb72a1ebbc342c0a3f7b3f18d4e94264fc352e820a13fe2c0821978982021-10-13 22:32:295 days 10 hrs ago0xa599a508829b18850d1a2b687eb0d4d94aafd949OUT0x2e6413ec518990baa72dff2ad0e64dfdf28e88c70 ETH0.000998321542 ETH
0xada3478205f9aaed4942179d9f3cdd622debc39054443216b76bdd2ab2ade17d21978832021-10-13 22:32:295 days 10 hrs ago0xa599a508829b18850d1a2b687eb0d4d94aafd949OUT 0x530476d5583724a89c8841eb6da76e7af4c0f17e0 ETH0.001269829335 ETH
0x3aaef0be0f92aab754fc0c1c46ea8e1184c12b9bc45f8340497398d020ab6c1821978782021-10-13 22:32:035 days 10 hrs ago0xa599a508829b18850d1a2b687eb0d4d94aafd949OUT0x37d38849c555e8afb52fe1e868f28a7ef90b744e0 ETH0.000999602094 ETH
0xf46bbaa68614742ff1fadf8771e76bf2195a20f60b3f55144e383709c3c94f8921842892021-10-13 13:03:395 days 20 hrs ago0xa599a508829b18850d1a2b687eb0d4d94aafd949OUT SushiSwap: Router0.14661973255811 ETH0.001022109906 ETH
0xefe59d67cd7e524ee738ac990ef90540441e151f10ab83584b083342c426be0921842822021-10-13 13:02:505 days 20 hrs ago0xa599a508829b18850d1a2b687eb0d4d94aafd949OUT 0xff970a61a04b1ca14834a43f5de4533ebddb5cc80 ETH0.00077210827 ETH
0x3661b5b7f00b7db23e04d4fa71259245d6622e5755f3a840fd5a44b07f796f9821842582021-10-13 13:02:505 days 20 hrs ago0xa599a508829b18850d1a2b687eb0d4d94aafd949OUT 0x5475aed9d11beaa822e122c36acdfa0da2eb086f0 ETH0.000954785428 ETH
0xc047c9c5a4caadc17b13752943d8e750a10445e5aba6dc52d8b7f9d89a0038e521842382021-10-13 13:02:135 days 20 hrs ago0xa599a508829b18850d1a2b687eb0d4d94aafd949OUT 0x5475aed9d11beaa822e122c36acdfa0da2eb086f0 ETH0.000959366482 ETH
0x01972b383cc6994e2ce22982767690385059c192c7ae52ef1972e6cfd1e3141521841972021-10-13 13:00:015 days 20 hrs ago0xa599a508829b18850d1a2b687eb0d4d94aafd949OUT 0x5475aed9d11beaa822e122c36acdfa0da2eb086f0.143999999999999 ETH0.000800577236 ETH
0x10bcee7972046791d3cb7ebe74c14e1dacd2d0b1040e7f07bd52a1f20f03222621841222021-10-13 12:57:455 days 20 hrs ago0xa599a508829b18850d1a2b687eb0d4d94aafd949OUT 0x5475aed9d11beaa822e122c36acdfa0da2eb086f0 ETH0.00080444105 ETH
0x008fcce38b8b463f1ecc64d53a5a1ae9e1d7ada9ec745f27c9b95258f0e0c73d21841172021-10-13 12:56:135 days 20 hrs ago0xa599a508829b18850d1a2b687eb0d4d94aafd949OUT 0xff970a61a04b1ca14834a43f5de4533ebddb5cc80 ETH0.000774365011 ETH
0x62c410f27be8dae2951a1b87d5fe1c7964204e0f51d5f08257db3e067bb145ba21840212021-10-13 12:53:525 days 20 hrs ago0xa599a508829b18850d1a2b687eb0d4d94aafd949OUT 0x8dc3312c68125a94916d62b97bb5d925f84d4ae00 ETH0.000621074332 ETH
0xbdf09e2332cbda9b49b82f75a1af7fca89c511d8c64099ec0de70a21ccd3403a21669432021-10-12 21:46:476 days 11 hrs ago0xa599a508829b18850d1a2b687eb0d4d94aafd949OUT0x98ceb851af3d8627287885d56aea863b848ceb6f0 ETH0.000958902568 ETH
0xd61c4823139c6e0927292ff67690831d7b214eb2fdc7fcd83aaff70f13131df121669272021-10-12 21:44:596 days 11 hrs ago0xa599a508829b18850d1a2b687eb0d4d94aafd949OUT 0x88cbf433471a0cd8240d2a12354362988b4593e50 ETH0.000913992486 ETH
[ Download CSV Export 
Parent Txn Hash Block From To Value
Loading

Contract Name:
0 ETH

Compiler Version
0

Optimization Enabled:
0 ETH

Other Settings:
-NA-
Block Transaction Gas Used Reward
Age Block Fee Address BC Fee Address Voting Power Jailed Incoming
Block Uncle Number Difficulty Gas Used Reward
Loading
Loading
Make sure to use the "Vote Down" button for any spammy posts, and the "Vote Up" for interesting conversations.